Hourly Data Report for September 18, 2017

All times are specified in Local Standard Time (LST). Add 1 hour to adjust for Daylight Saving Time where and when it is observed.

PETAWAWA AWOS 2
ONTARIO

45°57'00.000" N
77°19'00.000" W
130.10 m
6106396
71625
YWA

Download Data

Hourly Data (September 2017)
Hourly Data Report for September 18, 2017
Temp Definition
°C
Dew Point Temp Definition
°C
Rel Hum Definition
%
Wind Dir Definition
10's deg

Wind Spd Definition
km/h
Visibility Definition
km
Stn Press Definition
kPa
Hmdx Definition


Wind Chill Definition


Weather Definition


TIME
00:00 15.9 15.3 96   0 4.0 100.25     LegendNANA
01:00 15.6 15.2 98   0 11.3 100.25     LegendNANA
02:00 18.2 17.0 93 14 6 14.5 100.22     LegendNANA
03:00 18.0 17.1 94 11 6 14.5 100.20     LegendNANA
04:00 17.7 16.7 94 14 4 14.5 100.23     LegendNANA
05:00 17.8 16.7 93 12 7 14.5 100.26     LegendNANA
06:00 17.7 16.6 93 13 7 14.5 100.29     LegendNANA
07:00 18.0 16.7 92 13 9 14.5 100.27     LegendNANA
08:00 18.3 16.8 91 13 11 14.5 100.29     LegendNANA
09:00 19.1 17.1 88 12 15 14.5 100.29     LegendNANA
10:00 21.6 17.9 80 12 13 14.5 100.30 28   LegendNANA
11:00 22.0 17.6 76 12 9 14.5 100.29 28   LegendNANA
12:00 23.0 19.0 78 6 4 14.5 100.25 30   LegendNANA
13:00 23.2 18.9 77 32 4 14.5 100.21 30   LegendNANA
14:00 23.1 19.7 81 35 9 14.5 100.19 30   LegendNANA
15:00 22.7 19.9 84 34 6 14.5 100.17 30   Rain
16:00 21.9 19.9 88 35 4 9.7 100.14 29   Rain
17:00 21.7 20.3 92 32 7 14.5 100.15 30   LegendNANA
18:00 21.2 19.3 89 33 13 14.5 100.16 28   LegendNANA
19:00 20.2 18.8 92 32 9 14.5 100.19 27   LegendNANA
20:00 19.6 19.0 96 24 4 4.8 100.21     Rain
21:00 18.9 18.7 99   0 0.8 100.18     LegendNANA
22:00 18.6 18.3 98   0 1.4 100.17     LegendNANA
23:00 18.4 18.1 98 28 4 2.4 100.18     LegendNANA

Notes on Data Quality.

Legend

  • E = Estimated
  • M = Missing
  • NA = Not Available
  • ‡ = Partner data that is not subject to review by the National Climate Archives
Date modified: